[[{"header":{"parameterUnit":"m.s-1","parameterCategory":2,"la1":30.2991,"la2":30.254,"lo1":-89.0895,"lo2":-89.0444,"dy":0.0017,"dx":0.0017,"nx":28,"ny":28,"refTime":"2025-03-05T09:00:00:Z","depth":"0","parameterNumber":2,"parameterNumberName":"U-component_of_CURRENTS"},"data":[0,0,0,0,0,0,0,0,0,0,0,0,0,0,0,0,0,0,0,0,0,0,0,0,0,0,0,0,0,0,0,0,0,0,0,0,0,0,0,0,0,0,0,0,0,0,0,0,0,0,0,0,0,0,0,0,0,0,-0.2692,-0.2693,0,-0.272,-0.272,-0.272,-0.2668,-0.2667,-0.2666,-0.2664,-0.2602,-0.2602,-0.2602,0,0,0,0,0,0,0,0,0,0,0,0,0,-0.254,-0.2543,-0.2692,-0.2693,-0.2694,-0.272,-0.272,-0.272,-0.2669,-0.2667,-0.2665,-0.2664,-0.2603,-0.2602,-0.2602,0,0,0,0,0,0,0,0,0,0,0,0,0,-0.2587,-0.2544,-0.2692,-0.2674,-0.2673,-0.272,-0.272,-0.272,-0.2669,-0.2667,-0.2665,-0.2663,-0.2603,-0.2602,-0.2602,-0.2639,0,0,-0.26,-0.26,0,0,0,0,0,0,0,0,-0.2585,-0.2593,-0.2676,-0.2675,-0.2674,-0.2692,-0.2643,-0.2689,-0.2669,-0.2666,-0.2664,-0.2662,-0.2628,-0.2625,-0.2631,-0.2636,-0.2633,-0.26,-0.2599,-0.2599,-0.2599,0,0,0,0,0,0,0,-0.2582,-0.2591,-0.2699,-0.2677,-0.2676,-0.2646,-0.265,-0.2652,-0.2654,-0.2667,-0.2664,-0.2673,-0.2626,-0.2632,-0.2629,-0.2633,-0.26,-0.2599,-0.2599,-0.2599,-0.2601,-0.2602,0,0,0,0,0,0,-0.2592,-0.2589,-0.2698,-0.27,-0.2628,-0.2651,-0.2655,-0.2685,-0.2656,-0.2651,-0.2675,-0.2671,-0.2634,-0.263,-0.2626,-0.2618,-0.2599,-0.2599,-0.2598,-0.2601,-0.2601,-0.2602,0,0,0,0,0,0,-0.2589,-0.2602,-0.2697,-0.2646,-0.2657,-0.2656,-0.2689,-0.2687,-0.2689,-0.2664,-0.2656,-0.268,-0.2632,-0.2627,-0.262,-0.2617,-0.2598,-0.2598,-0.26,-0.2601,-0.2602,-0.2634,0,0,0,0,0,0,-0.2585,-0.2602,-0.2622,-0.2648,-0.266,-0.2724,-0.2692,-0.2689,-0.27,-0.2694,-0.2666,-0.2658,-0.263,-0.2621,-0.262,-0.2616,-0.2598,-0.26,-0.2601,-0.2601,-0.2633,-0.2636,-0.2639,0,0,0,0,0,-0.258,-0.2622,-0.2624,-0.2637,-0.2691,-0.2726,-0.2729,-0.2717,-0.2702,-0.271,-0.2685,-0.2658,-0.2624,-0.2622,-0.262,-0.2615,-0.26,-0.26,-0.2601,-0.2631,-0.2635,-0.2639,0,0,0,0,0,0,-0.2569,-0.2622,-0.2624,-0.2681,-0.27,-0.2718,-0.2731,-0.2728,-0.2719,-0.2707,-0.2674,-0.2666,-0.2656,-0.264,-0.2639,-0.2618,-0.2604,-0.2605,-0.2628,-0.2631,-0.2634,-0.2618,-0.2597,0,0,0,0,0,-0.258,-0.2621,-0.2658,-0.27,-0.2714,-0.2724,-0.2736,-0.2732,-0.2732,-0.2726,-0.2705,-0.268,-0.2663,-0.265,-0.2635,-0.2636,-0.2606,-0.2629,-0.2632,-0.2635,-0.2621,-0.2595,-0.2594,-0.2605,-0.2605,-0.2605,0,0,-0.2585,-0.2621,-0.2642,-0.2699,-0.2712,-0.2726,-0.2725,-0.275,-0.2746,-0.2722,-0.2706,-0.2696,-0.2668,-0.2657,-0.265,-0.2639,-0.2615,-0.2636,-0.2638,-0.2622,-0.2596,-0.2595,-0.2594,-0.2605,-0.2605,-0.2605,0,0,-0.2601,-0.2651,-0.2676,-0.2698,-0.2729,-0.2738,-0.2749,-0.2768,-0.276,-0.2761,-0.2733,-0.2721,-0.2703,-0.2675,-0.266,-0.2676,-0.2637,-0.2675,-0.2671,-0.2648,-0.2646,-0.2645,-0.26,-0.2594,-0.2671,-0.2671,-0.2671,0,-0.2596,-0.2637,-0.2685,-0.2706,-0.2716,-0.2743,-0.2749,-0.2759,-0.2766,-0.276,-0.2753,-0.2723,-0.2705,-0.268,-0.2678,-0.2681,-0.2656,-0.266,-0.2651,-0.2648,-0.2646,-0.26,-0.2593,-0.2672,-0.2672,-0.2672,-0.2672,0,-0.2615,-0.2643,-0.2663,-0.2693,-0.2715,-0.2733,-0.2754,-0.2765,-0.2763,-0.2762,-0.275,-0.2733,-0.2707,-0.2707,-0.2694,-0.2672,-0.2655,-0.2663,-0.264,-0.2647,-0.2598,-0.2591,-0.2675,-0.2674,-0.2674,-0.2673,0,0,-0.2597,-0.266,-0.2659,-0.2662,-0.2706,-0.2722,-0.2735,-0.2746,-0.2745,-0.2749,-0.2733,-0.2716,-0.2714,-0.2696,-0.2686,-0.2666,-0.2632,-0.2657,-0.2655,-0.2608,-0.2562,-0.2437,-0.2416,-0.2642,-0.2641,-0.264,-0.2532,0,-0.2578,-0.2601,-0.2643,-0.2647,-0.2654,-0.2694,-0.2702,-0.272,-0.2731,-0.2728,-0.272,-0.2706,-0.2708,-0.2698,-0.268,-0.2649,-0.2613,-0.2659,-0.2564,-0.256,-0.2446,-0.2403,-0.2286,-0.2169,-0.2524,-0.2523,-0.2522,0,-0.2555,-0.2577,-0.2579,-0.2614,-0.2622,-0.263,-0.2649,-0.2665,-0.2686,-0.2694,-0.2693,-0.2694,-0.2667,-0.2671,-0.2606,-0.2637,-0.2592,-0.2566,-0.2562,-0.2423,-0.2419,-0.2221,-0.2141,-0.2131,-0.2509,-0.251,-0.2511,0,-0.248,-0.2522,-0.2517,-0.2529,-0.258,-0.2583,-0.2607,-0.2641,-0.2652,-0.267,-0.2674,-0.2659,-0.2638,-0.2601,-0.2544,-0.2578,-0.2457,-0.2499,-0.2338,-0.2329,-0.2195,-0.2174,-0.2085,-0.2433,-0.2433,-0.2434,-0.2434,0,-0.2427,-0.242,-0.2481,-0.2475,-0.2472,-0.2531,-0.2531,-0.2562,-0.2599,-0.2597,-0.2644,-0.2621,-0.262,-0.2562,-0.2522,-0.2379,-0.2433,-0.2307,-0.2283,-0.2201,-0.2184,-0.2141,-0.2186,-0.243,-0.2431,-0.2431,-0.2432,0,-0.2326,-0.2371,-0.2368,-0.2418,-0.2432,-0.2425,-0.2482,-0.2484,-0.2542,-0.2539,-0.2543,-0.2574,-0.2491,-0.2456,-0.2374,-0.232,-0.2165,-0.2156,-0.2043,-0.2006,-0.1849,-0.1901,-0.1779,-0.1726,-0.1965,-0.1961,-0.1958,0,-0.227,-0.2258,-0.2304,-0.2301,-0.2317,-0.2333,-0.2341,-0.2425,-0.2438,-0.249,-0.2471,-0.2427,-0.234,-0.2173,-0.2068,-0.1931,-0.1985,-0.1767,-0.1804,-0.1784,-0.1828,-0.1891,-0.1863,-0.1646,-0.1641,-0.1636,-0.1633,0,-0.215,-0.217,-0.217,-0.2173,-0.2178,-0.2195,-0.2221,-0.223,-0.2318,-0.2318,-0.2278,-0.2215,-0.2066,-0.1865,-0.171,-0.1636,-0.172,-0.1666,-0.1683,-0.1577,-0.1605,-0.156,-0.1779,-0.1592,-0.1596,-0.1599,-0.1601,-0.1603,-0.2042,-0.202,-0.2027,-0.2016,-0.2031,-0.2027,-0.1986,-0.203,-0.2019,-0.1967,-0.2018,-0.1825,-0.1738,-0.1486,-0.1407,-0.1262,-0.1385,-0.1246,-0.1311,-0.1379,-0.1314,-0.1417,-0.1186,-0.1188,-0.1189,-0.119,-0.1191,0,-0.1889,-0.1881,-0.1869,-0.1848,-0.1806,-0.1871,-0.1873,-0.1808,-0.1729,-0.1653,-0.1562,-0.133,-0.1197,-0.113,-0.1023,-0.095,-0.0968,-0.0952,-0.1046,-0.1035,-0.1133,-0.1105,-0.0799,-0.0799,-0.0799,-0.0799,-0.0799,-0.0799,-0.1808,-0.1739,-0.174,-0.1619,-0.1605,-0.1496,-0.1462,-0.1398,-0.1306,-0.1056,-0.084,-0.0714,-0.077,-0.0951,-0.0907,-0.0851,-0.0881,-0.0826,-0.0898,-0.1013,-0.1048,-0.1082,-0.1064,-0.0755,-0.0755,-0.0742,-0.0742,-0.0742]},{"header":{"parameterUnit":"m.s-1","parameterCategory":2,"la1":30.2991,"la2":30.254,"lo1":-89.0895,"lo2":-89.0444,"dy":0.0017,"dx":0.0017,"nx":28,"ny":28,"refTime":"2025-03-05T09:00:00:Z","depth":"0","parameterNumber":3,"parameterNumberName":"V-component_of_CURRENTS"},"data":[0,0,0,0,0,0,0,0,0,0,0,0,0,0,0,0,0,0,0,0,0,0,0,0,0,0,0,0,0,0,0,0,0,0,0,0,0,0,0,0,0,0,0,0,0,0,0,0,0,0,0,0,0,0,0,0,0,0,-0.0447,-0.0446,0,-0.0344,-0.0343,-0.0341,-0.0282,-0.0282,-0.0282,-0.0282,-0.0139,-0.0135,-0.0132,0,0,0,0,0,0,0,0,0,0,0,0,0,-0.0497,-0.0497,-0.0447,-0.0446,-0.0445,-0.0344,-0.0343,-0.0341,-0.0282,-0.0282,-0.0282,-0.0282,-0.014,-0.0136,-0.0131,0,0,0,0,0,0,0,0,0,0,0,0,0,-0.0442,-0.0497,-0.0447,-0.0404,-0.0399,-0.0345,-0.0343,-0.0341,-0.0282,-0.0282,-0.0282,-0.0282,-0.0142,-0.0136,-0.0131,-0.0099,0,0,-0.0114,-0.0111,0,0,0,0,0,0,0,0,-0.0445,-0.044,-0.0412,-0.0407,-0.0402,-0.0327,-0.0308,-0.0258,-0.0282,-0.0325,-0.0282,-0.0282,-0.0199,-0.0189,-0.0168,-0.0093,-0.0087,-0.0113,-0.011,-0.0107,-0.0106,0,0,0,0,0,0,0,-0.0449,-0.0443,-0.0405,-0.0411,-0.0404,-0.0357,-0.035,-0.0298,-0.0263,-0.0322,-0.0317,-0.0308,-0.0196,-0.0174,-0.0164,-0.0084,-0.0113,-0.0108,-0.0105,-0.0103,0.0032,0.0033,0,0,0,0,0,0,-0.047,-0.0448,-0.0408,-0.0402,-0.0425,-0.0357,-0.0349,-0.035,-0.0264,-0.0251,-0.0308,-0.0306,-0.0183,-0.0171,-0.0159,-0.0126,-0.0107,-0.0102,-0.0099,0.0032,0.0032,0.0033,0,0,0,0,0,0,-0.0471,-0.0468,-0.0412,-0.0423,-0.0412,-0.0357,-0.0358,-0.0348,-0.0329,-0.0254,-0.0241,-0.03,-0.0183,-0.0167,-0.0114,-0.012,-0.01,-0.0095,0.0032,0.0032,0.0032,-0.0054,0,0,0,0,0,0,-0.0473,-0.0469,-0.0478,-0.0425,-0.0413,-0.0386,-0.0358,-0.0346,-0.0324,-0.0319,-0.0243,-0.0229,-0.0182,-0.0123,-0.0108,-0.0112,-0.009,0.0031,0.0032,0.0032,-0.0052,-0.0057,-0.0061,0,0,0,0,0,-0.0476,-0.0487,-0.0479,-0.0474,-0.0427,-0.0386,-0.0375,-0.0333,-0.0324,-0.0316,-0.0264,-0.0232,-0.011,-0.0118,-0.0101,-0.0103,0.0031,0.0032,0.0032,-0.005,-0.0056,-0.0061,0,0,0,0,0,0,-0.0509,-0.0481,-0.0471,-0.0473,-0.0436,-0.0376,-0.0366,-0.034,-0.0294,-0.0291,-0.0225,-0.0207,-0.0165,-0.0118,-0.0129,-0.0062,-0.0035,-0.0031,-0.0103,-0.0108,-0.0113,-0.0136,-0.0086,0,0,0,0,0,-0.0524,-0.0529,-0.0486,-0.0488,-0.0474,-0.0423,-0.0403,-0.0375,-0.0327,-0.0307,-0.0254,-0.0196,-0.0148,-0.0118,-0.0066,-0.0026,0.0022,-0.0016,-0.0021,-0.0025,-0.0031,0.0032,0.0032,0.0034,0.0034,0.0034,0,0,-0.0537,-0.0523,-0.0525,-0.0496,-0.0465,-0.0452,-0.041,-0.0384,-0.0373,-0.0298,-0.0265,-0.0212,-0.0142,-0.01,-0.0077,-0.0062,0.0001,-0.0024,-0.0029,-0.0032,0.0033,0.0032,0.0032,0.0035,0.0035,0.0035,0,0,-0.0566,-0.0555,-0.0568,-0.0544,-0.0508,-0.0475,-0.0473,-0.0417,-0.0392,-0.0352,-0.0301,-0.0252,-0.0173,-0.0126,-0.0093,-0.009,-0.0029,-0.0074,-0.0112,-0.0052,-0.0052,-0.0051,0.0011,0.0018,-0.0073,-0.0073,-0.0074,0,-0.0584,-0.0597,-0.0561,-0.0563,-0.0552,-0.0493,-0.0498,-0.0461,-0.0395,-0.0376,-0.0353,-0.0242,-0.0186,-0.0137,-0.0138,-0.0103,-0.0057,-0.0101,-0.006,-0.0058,-0.0056,0.0008,0.0016,-0.0078,-0.0077,-0.0077,-0.0076,0,-0.0618,-0.0627,-0.063,-0.0621,-0.06,-0.0593,-0.0543,-0.0519,-0.0483,-0.0441,-0.0384,-0.0303,-0.0238,-0.0213,-0.0175,-0.0135,-0.0103,-0.0079,-0.0053,-0.0062,0.0006,0.0017,-0.0083,-0.0082,-0.0081,-0.008,0,0,-0.0665,-0.0659,-0.0661,-0.0671,-0.0634,-0.0621,-0.0604,-0.0567,-0.0553,-0.0485,-0.0457,-0.0376,-0.0329,-0.0288,-0.0228,-0.0175,-0.0122,-0.0129,-0.0124,-0.0081,0.0017,0.0062,0.0078,-0.0091,-0.009,-0.0089,0.0059,0,-0.0705,-0.0736,-0.0714,-0.0735,-0.0746,-0.0695,-0.0684,-0.0641,-0.0587,-0.0541,-0.0457,-0.0403,-0.0357,-0.0324,-0.0268,-0.0153,-0.0098,-0.0164,0.0032,0.0038,0.0068,0.009,0.0134,0.0272,0.007,0.0072,0.0073,0,-0.0746,-0.0765,-0.08,-0.0803,-0.0802,-0.08,-0.0771,-0.0749,-0.0669,-0.0626,-0.0557,-0.0481,-0.0393,-0.0352,-0.0177,-0.0221,-0.0117,-0.0029,-0.0021,0.0057,0.0102,0.0252,0.0299,0.0436,0.009,0.0088,0.0087,0,-0.0805,-0.0823,-0.0859,-0.0859,-0.0849,-0.0853,-0.0839,-0.0778,-0.0754,-0.0672,-0.0636,-0.0524,-0.0447,-0.0321,-0.0141,-0.0157,0.0063,0.0069,0.0208,0.0212,0.0307,0.0318,0.0499,0.0187,0.0186,0.0186,0.0185,0,-0.086,-0.0886,-0.0891,-0.0913,-0.0948,-0.0913,-0.0921,-0.0886,-0.0823,-0.0781,-0.0686,-0.061,-0.0434,-0.0284,-0.0146,0.0073,0.0065,0.0208,0.0256,0.028,0.0286,0.0454,0.0494,0.0191,0.019,0.0189,0.0188,0,-0.0915,-0.0919,-0.0962,-0.0974,-0.0978,-0.1001,-0.0984,-0.0977,-0.0911,-0.0849,-0.0824,-0.0657,-0.0451,-0.0267,-0.0024,0.0087,0.0375,0.0354,0.0369,0.0415,0.0642,0.0673,0.089,0.099,0.052,0.0522,0.0523,0,-0.0944,-0.0974,-0.1015,-0.1043,-0.1052,-0.1073,-0.1082,-0.1031,-0.1007,-0.0859,-0.0826,-0.062,-0.044,-0.008,0.015,0.0406,0.0501,0.0581,0.0551,0.0672,0.0743,0.0755,0.0824,0.0652,0.0654,0.0656,0.0658,0,-0.0996,-0.1011,-0.1048,-0.1112,-0.114,-0.1165,-0.1162,-0.115,-0.1058,-0.0964,-0.0776,-0.0614,-0.0266,0.0065,0.037,0.0515,0.0684,0.0631,0.0767,0.0869,0.0887,0.1,0.0532,0.0677,0.0675,0.0674,0.0673,0.0672,-0.1024,-0.1067,-0.1115,-0.1171,-0.1208,-0.1226,-0.1218,-0.1156,-0.1071,-0.0827,-0.07,-0.0318,0.0006,0.0457,0.0603,0.0917,0.0868,0.1014,0.1047,0.1052,0.1135,0.0702,0.0886,0.0885,0.0885,0.0884,0.0884,0,-0.1051,-0.1099,-0.1164,-0.1223,-0.1261,-0.1267,-0.1245,-0.1167,-0.1011,-0.0678,-0.0411,0.0173,0.051,0.0816,0.1166,0.1329,0.1356,0.1409,0.1447,0.1502,0.1145,0.1137,0.1372,0.1372,0.1372,0.1372,0.1372,0.1372,-0.1065,-0.1132,-0.1171,-0.1241,-0.1276,-0.1271,-0.124,-0.1072,-0.0819,-0.0249,0.0253,0.0618,0.0981,0.1361,0.1671,0.1698,0.1855,0.1824,0.1913,0.1662,0.1628,0.1595,0.1599,0.1928,0.1928,0.2275,0.2278,0.2281]}],[{"header":{"parameterUnit":"m.s-1","parameterCategory":2,"la1":30.2991,"la2":30.254,"lo1":-89.0895,"lo2":-89.0444,"dy":0.0017,"dx":0.0017,"nx":28,"ny":28,"refTime":"2025-03-05T09:00:00:Z","depth":"2","parameterNumber":2,"parameterNumberName":"U-component_of_CURRENTS"},"data":[0,0,0,0,0,0,0,0,0,0,0,0,0,0,0,0,0,0,0,0,0,0,0,0,0,0,0,0,0,0,0,0,0,0,0,0,0,0,0,0,0,0,0,0,0,0,0,0,0,0,0,0,0,0,0,0,0,0,-0.2401,-0.2402,0,-0.2422,-0.2422,-0.2422,-0.2388,-0.2387,-0.2386,-0.2385,-0.236,-0.236,-0.236,0,0,0,0,0,0,0,0,0,0,0,0,0,-0.2318,-0.232,-0.2401,-0.2402,-0.2402,-0.2422,-0.2422,-0.2422,-0.2388,-0.2387,-0.2385,-0.2384,-0.236,-0.236,-0.236,0,0,0,0,0,0,0,0,0,0,0,0,0,-0.2347,-0.232,-0.2401,-0.2389,-0.2388,-0.2422,-0.2422,-0.2422,-0.2388,-0.2387,-0.2385,-0.2384,-0.2359,-0.236,-0.236,-0.2393,0,0,-0.2362,-0.2362,0,0,0,0,0,0,0,0,-0.2345,-0.2349,-0.239,-0.239,-0.2389,-0.2402,-0.2384,-0.2411,-0.2389,-0.2386,-0.2385,-0.2383,-0.2372,-0.2371,-0.2377,-0.2392,-0.2391,-0.2362,-0.2362,-0.2362,-0.2362,0,0,0,0,0,0,0,-0.2343,-0.2348,-0.2408,-0.2391,-0.239,-0.2378,-0.238,-0.2389,-0.2385,-0.2386,-0.2384,-0.239,-0.2371,-0.2376,-0.2376,-0.2391,-0.2362,-0.2362,-0.2362,-0.2362,-0.2401,-0.2402,0,0,0,0,0,0,-0.2347,-0.2347,-0.2407,-0.2409,-0.2365,-0.2381,-0.2383,-0.2398,-0.2386,-0.2384,-0.2391,-0.2388,-0.2376,-0.2375,-0.2375,-0.2391,-0.2362,-0.2362,-0.2363,-0.2401,-0.2402,-0.2402,0,0,0,0,0,0,-0.2345,-0.2353,-0.2406,-0.2379,-0.2385,-0.2384,-0.2401,-0.2399,-0.2405,-0.2391,-0.2386,-0.2398,-0.2375,-0.2374,-0.2382,-0.239,-0.2363,-0.2363,-0.24,-0.2401,-0.2402,-0.2437,0,0,0,0,0,0,-0.2343,-0.2352,-0.2363,-0.238,-0.2387,-0.2427,-0.2403,-0.2401,-0.2411,-0.2408,-0.2396,-0.2391,-0.2374,-0.2382,-0.2382,-0.239,-0.2363,-0.2399,-0.24,-0.2402,-0.2435,-0.2439,-0.2443,0,0,0,0,0,-0.234,-0.2363,-0.2364,-0.2371,-0.2403,-0.2428,-0.243,-0.2422,-0.2413,-0.242,-0.2411,-0.2392,-0.2391,-0.2383,-0.2384,-0.2392,-0.2398,-0.24,-0.2401,-0.2433,-0.2439,-0.2443,0,0,0,0,0,0,-0.2335,-0.2363,-0.2364,-0.2394,-0.241,-0.2422,-0.2432,-0.2432,-0.2433,-0.2427,-0.2409,-0.2405,-0.2413,-0.2404,-0.2396,-0.2407,-0.2389,-0.2391,-0.2413,-0.2418,-0.2422,-0.2408,-0.2364,0,0,0,0,0,-0.2342,-0.2362,-0.2385,-0.2409,-0.242,-0.2429,-0.2438,-0.2438,-0.2443,-0.2441,-0.2434,-0.2426,-0.2425,-0.2422,-0.242,-0.2434,-0.2407,-0.2438,-0.2442,-0.2446,-0.2435,-0.2417,-0.2418,-0.2408,-0.2408,-0.2408,0,0,-0.2346,-0.2364,-0.2375,-0.2408,-0.2419,-0.2436,-0.243,-0.2451,-0.2458,-0.244,-0.2447,-0.2445,-0.2433,-0.2441,-0.2444,-0.2432,-0.2434,-0.2448,-0.2451,-0.2438,-0.2419,-0.2419,-0.242,-0.2409,-0.2409,-0.2409,0,0,-0.2356,-0.2383,-0.2396,-0.2415,-0.2438,-0.2448,-0.2457,-0.2476,-0.2476,-0.2494,-0.2477,-0.2478,-0.2484,-0.247,-0.2465,-0.2494,-0.2459,-0.2498,-0.2504,-0.2487,-0.2487,-0.2487,-0.2448,-0.2444,-0.2497,-0.2497,-0.2497,0,-0.2355,-0.2378,-0.2404,-0.2421,-0.2434,-0.2455,-0.2468,-0.2482,-0.2498,-0.25,-0.2497,-0.25,-0.2493,-0.2491,-0.2496,-0.2501,-0.2479,-0.2486,-0.2491,-0.249,-0.2489,-0.2449,-0.2444,-0.2499,-0.2499,-0.2498,-0.2498,0,-0.2368,-0.2389,-0.2403,-0.2428,-0.2449,-0.2468,-0.2493,-0.251,-0.2518,-0.2524,-0.2534,-0.2529,-0.2523,-0.2529,-0.252,-0.2515,-0.2497,-0.2501,-0.2476,-0.2492,-0.2449,-0.2443,-0.2502,-0.2501,-0.25,-0.25,0,0,-0.2346,-0.2399,-0.2399,-0.241,-0.2453,-0.2468,-0.2496,-0.2517,-0.2526,-0.2543,-0.2544,-0.255,-0.2547,-0.2541,-0.2535,-0.2521,-0.2498,-0.2509,-0.2507,-0.2464,-0.2443,-0.2331,-0.2313,-0.2506,-0.2506,-0.2505,-0.2412,0,-0.2338,-0.2364,-0.2396,-0.2419,-0.2433,-0.247,-0.2492,-0.2518,-0.2536,-0.2546,-0.2549,-0.2551,-0.2553,-0.255,-0.254,-0.2512,-0.2485,-0.2521,-0.2437,-0.2434,-0.2328,-0.2304,-0.2145,-0.204,-0.2406,-0.2405,-0.2405,0,-0.2321,-0.2344,-0.2363,-0.2408,-0.2418,-0.2436,-0.2469,-0.2494,-0.2524,-0.2538,-0.2548,-0.2553,-0.2541,-0.2541,-0.2491,-0.2516,-0.2475,-0.2451,-0.2447,-0.2322,-0.2311,-0.2084,-0.2015,-0.2395,-0.2395,-0.2396,-0.2397,0,-0.2265,-0.2313,-0.2324,-0.234,-0.2399,-0.2411,-0.244,-0.2481,-0.2498,-0.2527,-0.2535,-0.2536,-0.2523,-0.2494,-0.2444,-0.247,-0.2373,-0.2403,-0.2259,-0.2251,-0.2085,-0.2062,-0.2351,-0.2351,-0.2352,-0.2352,-0.2352,0,-0.223,-0.2236,-0.2298,-0.2303,-0.2316,-0.2374,-0.2389,-0.2424,-0.2465,-0.2468,-0.2518,-0.2504,-0.2511,-0.2465,-0.2429,-0.2304,-0.2355,-0.2236,-0.2213,-0.2091,-0.2071,-0.2361,-0.2364,-0.2348,-0.2349,-0.235,-0.235,0,-0.2152,-0.2198,-0.2211,-0.2271,-0.2286,-0.2292,-0.2351,-0.2359,-0.2419,-0.2422,-0.243,-0.2464,-0.2396,-0.2372,-0.2305,-0.2257,-0.2172,-0.2114,-0.1956,-0.1915,-0.2069,-0.2075,-0.1951,-0.1946,-0.1942,-0.1939,-0.1936,0,-0.2109,-0.2109,-0.2164,-0.2167,-0.2188,-0.2216,-0.2228,-0.2311,-0.2325,-0.2377,-0.2361,-0.2331,-0.2251,-0.2114,-0.2022,-0.1903,-0.202,-0.1716,-0.1734,-0.2034,-0.2025,-0.2037,-0.2048,-0.1531,-0.1525,-0.152,-0.1516,0,-0.2018,-0.204,-0.205,-0.2063,-0.2075,-0.2093,-0.2124,-0.2131,-0.2213,-0.2212,-0.2175,-0.2117,-0.1992,-0.1788,-0.1662,-0.1593,-0.1728,-0.1611,-0.1947,-0.1659,-0.1631,-0.1625,-0.1651,-0.1472,-0.1477,-0.148,-0.1482,-0.1484,-0.1931,-0.1917,-0.1933,-0.1929,-0.195,-0.1943,-0.1901,-0.194,-0.1924,-0.1878,-0.1934,-0.1782,-0.1733,-0.1426,-0.132,-0.1256,-0.1389,-0.1354,-0.1373,-0.1395,-0.1366,-0.1331,-0.111,-0.1112,-0.1114,-0.1116,-0.1118,0,-0.1806,-0.1801,-0.1797,-0.1783,-0.1746,-0.1807,-0.1799,-0.1724,-0.1636,-0.1619,-0.1541,-0.1322,-0.1158,-0.1122,-0.0933,-0.0891,-0.092,-0.0873,-0.0925,-0.0966,-0.1004,-0.0959,-0.0593,-0.0592,-0.059,-0.0589,0,0,-0.174,-0.1685,-0.1684,-0.1575,-0.1563,-0.1456,-0.1415,-0.1326,-0.1273,-0.1131,-0.1047,-0.1082,-0.1073,-0.0839,-0.0774,-0.0651,-0.081,-0.0613,-0.103,-0.1131,-0.1167,-0.1267,-0.1242,0,0,0,0,0]},{"header":{"parameterUnit":"m.s-1","parameterCategory":2,"la1":30.2991,"la2":30.254,"lo1":-89.0895,"lo2":-89.0444,"dy":0.0017,"dx":0.0017,"nx":28,"ny":28,"refTime":"2025-03-05T09:00:00:Z","depth":"2","parameterNumber":3,"parameterNumberName":"V-component_of_CURRENTS"},"data":[0,0,0,0,0,0,0,0,0,0,0,0,0,0,0,0,0,0,0,0,0,0,0,0,0,0,0,0,0,0,0,0,0,0,0,0,0,0,0,0,0,0,0,0,0,0,0,0,0,0,0,0,0,0,0,0,0,0,-0.0421,-0.042,0,-0.0344,-0.0343,-0.0342,-0.0285,-0.0284,-0.0284,-0.0284,-0.0155,-0.0152,-0.0149,0,0,0,0,0,0,0,0,0,0,0,0,0,-0.0438,-0.0438,-0.0421,-0.042,-0.042,-0.0344,-0.0343,-0.0341,-0.0285,-0.0284,-0.0284,-0.0284,-0.0156,-0.0153,-0.0149,0,0,0,0,0,0,0,0,0,0,0,0,0,-0.0401,-0.0438,-0.0421,-0.0383,-0.0379,-0.0344,-0.0343,-0.0341,-0.0285,-0.0284,-0.0284,-0.0283,-0.0158,-0.0153,-0.0149,-0.0131,0,0,-0.0135,-0.0133,0,0,0,0,0,0,0,0,-0.0404,-0.0401,-0.039,-0.0386,-0.0381,-0.0325,-0.0301,-0.0269,-0.0285,-0.0319,-0.0284,-0.0283,-0.0209,-0.02,-0.0185,-0.0125,-0.012,-0.0134,-0.0131,-0.0129,-0.0128,0,0,0,0,0,0,0,-0.0406,-0.0403,-0.0389,-0.0389,-0.0384,-0.0342,-0.0337,-0.0295,-0.0266,-0.0316,-0.0312,-0.0306,-0.0206,-0.019,-0.0182,-0.0118,-0.0134,-0.013,-0.0127,-0.0126,-0.0014,-0.0013,0,0,0,0,0,0,-0.0424,-0.0406,-0.0392,-0.0387,-0.0393,-0.0342,-0.0336,-0.0342,-0.0267,-0.0256,-0.0307,-0.0304,-0.0198,-0.0187,-0.0177,-0.0142,-0.0129,-0.0125,-0.0122,-0.0014,-0.0014,-0.0013,0,0,0,0,0,0,-0.0425,-0.0424,-0.0395,-0.0395,-0.0388,-0.0343,-0.035,-0.0341,-0.0326,-0.0261,-0.0248,-0.0301,-0.0197,-0.0183,-0.0139,-0.0137,-0.0123,-0.0119,-0.0014,-0.0014,-0.0013,-0.0077,0,0,0,0,0,0,-0.0426,-0.0425,-0.0435,-0.0397,-0.0389,-0.0379,-0.035,-0.034,-0.0323,-0.0319,-0.0252,-0.0239,-0.0196,-0.0147,-0.0135,-0.013,-0.0115,-0.0014,-0.0014,-0.0014,-0.0076,-0.0079,-0.0083,0,0,0,0,0,-0.0427,-0.0445,-0.0437,-0.0435,-0.0406,-0.0379,-0.0371,-0.0336,-0.0324,-0.0319,-0.0273,-0.0241,-0.0135,-0.0143,-0.0129,-0.0123,-0.0014,-0.0014,-0.0014,-0.0074,-0.0079,-0.0082,0,0,0,0,0,0,-0.0456,-0.044,-0.043,-0.0443,-0.0415,-0.037,-0.0366,-0.0343,-0.0304,-0.03,-0.0239,-0.0223,-0.0185,-0.0145,-0.0155,-0.0089,-0.0069,-0.0066,-0.012,-0.0124,-0.0127,-0.0143,-0.0111,0,0,0,0,0,-0.047,-0.0482,-0.0451,-0.0461,-0.0451,-0.0411,-0.0397,-0.0373,-0.0334,-0.0317,-0.0269,-0.0217,-0.0172,-0.0143,-0.0099,-0.0063,-0.0021,-0.0048,-0.0052,-0.0055,-0.0058,0.0003,0.0005,-0.0012,-0.0012,-0.0012,0,0,-0.0485,-0.0478,-0.0484,-0.0468,-0.0445,-0.0435,-0.0401,-0.0386,-0.0371,-0.0309,-0.0276,-0.0231,-0.0167,-0.0127,-0.0105,-0.0092,-0.0029,-0.0055,-0.0058,-0.0059,0.0004,0.0006,0.0007,-0.0011,-0.0011,-0.0012,0,0,-0.0516,-0.0514,-0.0529,-0.0512,-0.0486,-0.0459,-0.0459,-0.0416,-0.0392,-0.0357,-0.0309,-0.0262,-0.0195,-0.0145,-0.0112,-0.0107,-0.0055,-0.0094,-0.0117,-0.0058,-0.0056,-0.0054,-0.0003,0.0004,-0.009,-0.009,-0.009,0,-0.0533,-0.055,-0.0527,-0.0531,-0.052,-0.0475,-0.0478,-0.0446,-0.0393,-0.0372,-0.0355,-0.0252,-0.0201,-0.0144,-0.0142,-0.0115,-0.0077,-0.011,-0.0064,-0.0061,-0.0057,-0.0005,0.0003,-0.0093,-0.0093,-0.0092,-0.0092,0,-0.057,-0.0578,-0.0584,-0.0577,-0.0561,-0.0558,-0.0514,-0.0492,-0.0459,-0.042,-0.0364,-0.0292,-0.0229,-0.0205,-0.0172,-0.0123,-0.0103,-0.0082,-0.0058,-0.006,-0.0005,0.0006,-0.0097,-0.0096,-0.0095,-0.0095,0,0,-0.062,-0.0614,-0.0615,-0.0618,-0.0587,-0.0578,-0.0556,-0.0518,-0.0501,-0.0441,-0.0408,-0.0329,-0.0289,-0.025,-0.0196,-0.0142,-0.0089,-0.011,-0.0105,-0.0068,0.0037,0.006,0.0073,-0.0062,-0.0061,-0.0059,0.0065,0,-0.0654,-0.068,-0.0659,-0.0671,-0.0678,-0.0631,-0.0614,-0.0573,-0.0524,-0.0478,-0.0397,-0.0346,-0.0305,-0.0275,-0.0217,-0.0121,-0.0065,-0.0125,0.0041,0.0046,0.006,0.0085,0.0067,0.0177,0.0075,0.0077,0.0078,0,-0.0693,-0.0707,-0.0731,-0.0722,-0.072,-0.0716,-0.0681,-0.0657,-0.0579,-0.054,-0.0472,-0.0405,-0.0316,-0.0285,-0.0123,-0.0164,-0.0074,0.0001,0.0008,0.0059,0.0088,0.0165,0.02,0.0095,0.0094,0.0093,0.0092,0,-0.0745,-0.0752,-0.0777,-0.0775,-0.0757,-0.0756,-0.074,-0.068,-0.0656,-0.0576,-0.0548,-0.0434,-0.0367,-0.0248,-0.0094,-0.0107,0.0086,0.0094,0.0202,0.0205,0.0238,0.024,0.0207,0.0207,0.0207,0.0207,0.0206,0,-0.079,-0.0807,-0.0806,-0.0821,-0.0846,-0.081,-0.0812,-0.0776,-0.0716,-0.0679,-0.0587,-0.0522,-0.0355,-0.0223,-0.0098,0.0087,0.009,0.0205,0.0243,0.0215,0.0214,0.018,0.0175,0.0211,0.021,0.0209,0.0209,0,-0.0839,-0.0838,-0.0868,-0.087,-0.0873,-0.0891,-0.0872,-0.0865,-0.0804,-0.0751,-0.0727,-0.0574,-0.0396,-0.0226,-0.0007,0.0092,0.0258,0.0323,0.0273,0.0303,0.0336,0.0326,0.0453,0.0454,0.0456,0.0458,0.0459,0,-0.0863,-0.0886,-0.0915,-0.094,-0.0945,-0.0961,-0.0969,-0.0919,-0.0899,-0.0769,-0.0743,-0.0562,-0.041,-0.0096,0.011,0.0336,0.033,0.0438,0.0413,0.0339,0.0363,0.0351,0.034,0.0434,0.0435,0.0436,0.0436,0,-0.0908,-0.092,-0.0948,-0.1005,-0.1031,-0.1051,-0.1051,-0.1043,-0.0959,-0.0881,-0.0729,-0.0592,-0.0293,-0.003,0.0242,0.0366,0.0395,0.0459,0.0423,0.0364,0.033,0.035,0.0339,0.0443,0.0442,0.0442,0.0441,0.0441,-0.0934,-0.0972,-0.1012,-0.1062,-0.1097,-0.1118,-0.1113,-0.1075,-0.1008,-0.0854,-0.0725,-0.049,-0.0257,0.0147,0.0332,0.0489,0.0487,0.0527,0.0522,0.0517,0.0482,0.0451,0.058,0.058,0.058,0.0581,0.0581,0,-0.0963,-0.1004,-0.1061,-0.1114,-0.1154,-0.1159,-0.1145,-0.109,-0.0982,-0.0828,-0.0646,-0.035,-0.0071,0.0155,0.0417,0.057,0.0545,0.0586,0.0527,0.052,0.0515,0.0476,0.0576,0.0576,0.0576,0.0576,0,0,-0.0978,-0.1038,-0.1071,-0.114,-0.1175,-0.1179,-0.1156,-0.1041,-0.0911,-0.0708,-0.0534,-0.0328,-0.0047,0.0135,0.0329,0.0461,0.0445,0.0467,0.0458,0.0359,0.0352,0.0473,0.0406,0,0,0,0,0]}],[{"header":{"parameterUnit":"m.s-1","parameterCategory":2,"la1":30.2991,"la2":30.254,"lo1":-89.0895,"lo2":-89.0444,"dy":0.0017,"dx":0.0017,"nx":28,"ny":28,"refTime":"2025-03-05T09:00:00:Z","depth":"4","parameterNumber":2,"parameterNumberName":"U-component_of_CURRENTS"},"data":[0,0,0,0,0,0,0,0,0,0,0,0,0,0,0,0,0,0,0,0,0,0,0,0,0,0,0,0,0,0,0,0,0,0,0,0,0,0,0,0,0,0,0,0,0,0,0,0,0,0,0,0,0,0,0,0,0,0,-0.1639,-0.1639,0,-0.1687,-0.1688,-0.1688,-0.1714,-0.1714,-0.1714,-0.1714,-0.1772,-0.1773,-0.1775,0,0,0,0,0,0,0,0,0,0,0,0,0,-0.1583,-0.1584,-0.1639,-0.1639,-0.164,-0.1687,-0.1688,-0.1689,-0.1714,-0.1714,-0.1714,-0.1714,-0.1772,-0.1773,-0.1775,0,0,0,0,0,0,0,0,0,0,0,0,0,-0.1616,-0.1584,-0.1639,-0.1659,-0.1661,-0.1687,-0.1688,-0.1689,-0.1714,-0.1714,-0.1714,-0.1714,-0.1771,-0.1773,-0.1775,-0.1786,0,0,-0.1782,-0.1783,0,0,0,0,0,0,0,0,-0.1614,-0.1618,-0.1655,-0.1657,-0.166,-0.1695,-0.169,-0.1722,-0.1714,-0.1693,-0.1714,-0.1714,-0.1748,-0.1752,-0.1759,-0.1788,-0.1791,-0.1782,-0.1783,-0.1784,-0.1785,0,0,0,0,0,0,0,-0.1612,-0.1616,-0.1657,-0.1656,-0.1659,-0.1671,-0.1676,-0.1696,-0.1719,-0.1695,-0.1697,-0.1704,-0.1749,-0.1757,-0.1761,-0.1792,-0.1782,-0.1784,-0.1785,-0.1786,-0.189,-0.1891,0,0,0,0,0,0,-0.1607,-0.1614,-0.1656,-0.1659,-0.1638,-0.1672,-0.1677,-0.1683,-0.1718,-0.1724,-0.1703,-0.1705,-0.1753,-0.1758,-0.1763,-0.1836,-0.1784,-0.1786,-0.1788,-0.1888,-0.189,-0.1892,0,0,0,0,0,0,-0.1605,-0.161,-0.1654,-0.1638,-0.1645,-0.1672,-0.168,-0.1684,-0.1719,-0.1725,-0.173,-0.1736,-0.1754,-0.176,-0.1805,-0.1836,-0.1787,-0.1789,-0.1887,-0.1889,-0.1891,-0.1944,0,0,0,0,0,0,-0.1603,-0.1609,-0.1626,-0.1638,-0.1645,-0.1684,-0.168,-0.1685,-0.1721,-0.1724,-0.1754,-0.1758,-0.1754,-0.1802,-0.1808,-0.1838,-0.1791,-0.1885,-0.1888,-0.189,-0.1941,-0.1948,-0.1954,0,0,0,0,0,-0.1601,-0.1618,-0.1627,-0.1633,-0.1663,-0.1685,-0.1691,-0.171,-0.1723,-0.1742,-0.1766,-0.1759,-0.1823,-0.1806,-0.1811,-0.1843,-0.1884,-0.1887,-0.189,-0.1938,-0.1946,-0.1954,0,0,0,0,0,0,-0.1607,-0.1622,-0.1632,-0.1655,-0.1677,-0.169,-0.1714,-0.1729,-0.1763,-0.1776,-0.178,-0.1786,-0.1835,-0.1835,-0.1815,-0.1881,-0.1851,-0.1856,-0.1885,-0.1894,-0.19,-0.1884,-0.1793,0,0,0,0,0,-0.1615,-0.1631,-0.1648,-0.1671,-0.1684,-0.1707,-0.1725,-0.174,-0.1764,-0.1781,-0.1804,-0.1828,-0.1849,-0.1869,-0.1886,-0.1927,-0.1899,-0.1951,-0.1957,-0.1963,-0.1954,-0.1945,-0.1949,-0.1902,-0.1902,-0.1902,0,0,-0.1625,-0.1636,-0.1647,-0.1674,-0.1694,-0.172,-0.1719,-0.1755,-0.1784,-0.1782,-0.1841,-0.1856,-0.1866,-0.1908,-0.193,-0.1915,-0.1962,-0.1967,-0.1972,-0.196,-0.1948,-0.1953,-0.1956,-0.1905,-0.1904,-0.1904,0,0,-0.1639,-0.1664,-0.1678,-0.1701,-0.1736,-0.175,-0.1768,-0.1801,-0.1827,-0.1879,-0.1882,-0.1914,-0.1961,-0.1964,-0.1972,-0.2028,-0.1998,-0.2045,-0.2069,-0.2061,-0.2064,-0.2067,-0.2033,-0.2032,-0.205,-0.205,-0.205,0,-0.1653,-0.1671,-0.1689,-0.1711,-0.1737,-0.1767,-0.1796,-0.1826,-0.1874,-0.1895,-0.1907,-0.1968,-0.1981,-0.2012,-0.2032,-0.2042,-0.2025,-0.2038,-0.2068,-0.207,-0.2071,-0.2036,-0.2034,-0.2053,-0.2052,-0.2052,-0.2052,0,-0.1665,-0.1698,-0.1714,-0.175,-0.178,-0.1814,-0.1852,-0.1894,-0.1934,-0.1956,-0.2012,-0.203,-0.2057,-0.2075,-0.2074,-0.2099,-0.2078,-0.2076,-0.2043,-0.2079,-0.204,-0.2037,-0.2057,-0.2056,-0.2055,-0.2054,0,0,-0.1643,-0.1709,-0.1718,-0.1746,-0.1807,-0.1829,-0.1888,-0.1935,-0.1969,-0.2024,-0.2057,-0.2104,-0.2112,-0.212,-0.2126,-0.2125,-0.2124,-0.2111,-0.211,-0.2069,-0.2089,-0.1939,-0.1921,-0.2132,-0.2132,-0.2132,-0.2056,0,-0.165,-0.1697,-0.173,-0.179,-0.1819,-0.1873,-0.192,-0.1971,-0.2016,-0.2058,-0.2085,-0.2122,-0.213,-0.2148,-0.2151,-0.2131,-0.2119,-0.2143,-0.2067,-0.2064,-0.1919,-0.1913,-0.2132,-0.2053,-0.2052,-0.2052,-0.2051,0,-0.1638,-0.1676,-0.1733,-0.1809,-0.1828,-0.1872,-0.1947,-0.1992,-0.2053,-0.2086,-0.2126,-0.2145,-0.2162,-0.2162,-0.2139,-0.2157,-0.2125,-0.2105,-0.2101,-0.1935,-0.1908,-0.2011,-0.2045,-0.2046,-0.2046,-0.2047,-0.2047,0,-0.1592,-0.1673,-0.1722,-0.175,-0.184,-0.1882,-0.1933,-0.2003,-0.2036,-0.2101,-0.2121,-0.2154,-0.216,-0.2145,-0.2109,-0.213,-0.2057,-0.2079,-0.1909,-0.1898,-0.2034,-0.2032,-0.2047,-0.2047,-0.2047,-0.2047,-0.2047,0,-0.1564,-0.1606,-0.1711,-0.1737,-0.1793,-0.1868,-0.1925,-0.1978,-0.2042,-0.2057,-0.2129,-0.2122,-0.2158,-0.2125,-0.2099,-0.1972,-0.2046,-0.1891,-0.1862,-0.2059,-0.2061,-0.2031,-0.203,-0.2044,-0.2045,-0.2046,-0.2046,0,-0.1496,-0.1569,-0.163,-0.1738,-0.1773,-0.1814,-0.191,-0.1935,-0.2015,-0.2033,-0.2052,-0.2094,-0.2039,-0.2036,-0.1988,-0.1926,-0.1845,-0.1783,-0.1966,-0.1952,-0.1697,-0.17,-0.1586,-0.158,-0.1575,-0.1571,-0.1567,0,-0.1459,-0.1487,-0.1611,-0.1642,-0.1696,-0.1769,-0.1803,-0.1904,-0.1921,-0.1984,-0.1965,-0.1955,-0.1958,-0.1751,-0.1785,-0.1695,-0.168,-0.1636,-0.169,-0.1663,-0.1648,-0.1659,-0.1669,-0.1559,-0.1558,-0.1556,-0.1555,0,-0.1385,-0.1447,-0.1494,-0.1559,-0.1612,-0.1655,-0.1715,-0.1711,-0.1798,-0.1891,-0.1806,-0.1758,-0.168,-0.1629,-0.1557,-0.151,-0.1669,-0.1582,-0.1594,-0.1644,-0.1629,-0.1621,-0.1637,-0.1537,-0.154,-0.1541,-0.1542,0,-0.1325,-0.1339,-0.1408,-0.1445,-0.151,-0.1508,-0.156,-0.1555,-0.158,-0.1656,-0.1616,-0.1604,-0.1644,-0.1529,-0.147,-0.1397,-0.139,-0.1363,-0.1387,-0.1407,-0.1384,-0.1341,-0.1113,0,0,0,0,0,-0.1252,-0.1248,-0.1281,-0.1311,-0.1369,-0.1398,-0.1477,-0.1529,-0.1614,-0.15,-0.1552,-0.1469,-0.1369,-0.1374,-0.1258,-0.14,-0.1407,-0.1263,-0.1393,-0.1438,-0.1459,-0.145,0,0,0,0,0,0,-0.1202,-0.123,-0.1236,-0.1186,-0.1176,-0.1213,-0.1255,-0.1317,-0.1265,-0.1356,-0.1298,-0.1373,-0.1291,-0.1388,-0.122,-0.1221,-0.1271,-0.1274,-0.127,-0.1426,-0.1445,-0.1462,-0.146,0,0,0,0,0]},{"header":{"parameterUnit":"m.s-1","parameterCategory":2,"la1":30.2991,"la2":30.254,"lo1":-89.0895,"lo2":-89.0444,"dy":0.0017,"dx":0.0017,"nx":28,"ny":28,"refTime":"2025-03-05T09:00:00:Z","depth":"4","parameterNumber":3,"parameterNumberName":"V-component_of_CURRENTS"},"data":[0,0,0,0,0,0,0,0,0,0,0,0,0,0,0,0,0,0,0,0,0,0,0,0,0,0,0,0,0,0,0,0,0,0,0,0,0,0,0,0,0,0,0,0,0,0,0,0,0,0,0,0,0,0,0,0,0,0,-0.0325,-0.0324,0,-0.0287,-0.0286,-0.0286,-0.0249,-0.0249,-0.0249,-0.0248,-0.0157,-0.0155,-0.0153,0,0,0,0,0,0,0,0,0,0,0,0,0,-0.0309,-0.0309,-0.0325,-0.0324,-0.0324,-0.0287,-0.0286,-0.0285,-0.0249,-0.0249,-0.0249,-0.0248,-0.0158,-0.0156,-0.0153,0,0,0,0,0,0,0,0,0,0,0,0,0,-0.0297,-0.031,-0.0325,-0.0302,-0.03,-0.0287,-0.0286,-0.0285,-0.025,-0.0249,-0.0248,-0.0248,-0.0159,-0.0156,-0.0153,-0.0144,0,0,-0.0143,-0.0142,0,0,0,0,0,0,0,0,-0.0298,-0.0297,-0.0306,-0.0304,-0.0301,-0.0273,-0.0247,-0.0236,-0.025,-0.0268,-0.0248,-0.0248,-0.0192,-0.0186,-0.018,-0.014,-0.0136,-0.0143,-0.0141,-0.014,-0.0139,0,0,0,0,0,0,0,-0.0299,-0.0298,-0.0309,-0.0306,-0.0303,-0.0274,-0.0272,-0.0245,-0.0232,-0.0266,-0.0264,-0.0261,-0.019,-0.0183,-0.0177,-0.0135,-0.0143,-0.014,-0.0138,-0.0137,-0.0063,-0.0063,0,0,0,0,0,0,-0.0309,-0.03,-0.031,-0.0308,-0.0299,-0.0275,-0.0273,-0.0282,-0.0233,-0.0226,-0.0262,-0.026,-0.0188,-0.0181,-0.0174,-0.0148,-0.014,-0.0137,-0.0135,-0.0063,-0.0063,-0.0063,0,0,0,0,0,0,-0.0309,-0.0311,-0.0311,-0.0303,-0.0301,-0.0277,-0.0286,-0.0281,-0.0277,-0.023,-0.0222,-0.0263,-0.0188,-0.0178,-0.0151,-0.0144,-0.0135,-0.0133,-0.0063,-0.0063,-0.0063,-0.0104,0,0,0,0,0,0,-0.0309,-0.0311,-0.0324,-0.0304,-0.0302,-0.0309,-0.0287,-0.0281,-0.0276,-0.0273,-0.0228,-0.0219,-0.0187,-0.0156,-0.0148,-0.014,-0.013,-0.0064,-0.0063,-0.0063,-0.0103,-0.0106,-0.0108,0,0,0,0,0,-0.0309,-0.033,-0.0326,-0.0327,-0.032,-0.031,-0.0306,-0.0286,-0.0277,-0.0279,-0.0247,-0.0221,-0.0149,-0.0154,-0.0144,-0.0135,-0.0064,-0.0063,-0.0063,-0.0102,-0.0105,-0.0108,0,0,0,0,0,0,-0.033,-0.0328,-0.0322,-0.0343,-0.0329,-0.0304,-0.0308,-0.0293,-0.0271,-0.0269,-0.0223,-0.0212,-0.0186,-0.0157,-0.0164,-0.0113,-0.01,-0.0098,-0.0133,-0.0136,-0.0138,-0.0145,-0.0128,0,0,0,0,0,-0.0342,-0.0359,-0.0344,-0.036,-0.0357,-0.0334,-0.0329,-0.0316,-0.0293,-0.0283,-0.0249,-0.0212,-0.0178,-0.0156,-0.0126,-0.01,-0.0067,-0.0086,-0.0089,-0.0091,-0.009,-0.0035,-0.0033,-0.0062,-0.0062,-0.0062,0,0,-0.0356,-0.0357,-0.0367,-0.0366,-0.0356,-0.0352,-0.033,-0.0329,-0.0319,-0.0276,-0.0255,-0.0224,-0.0175,-0.0146,-0.013,-0.0119,-0.0067,-0.0091,-0.0093,-0.0091,-0.0035,-0.0032,-0.0029,-0.0062,-0.0062,-0.0062,0,0,-0.0384,-0.0392,-0.041,-0.0402,-0.0393,-0.0376,-0.0378,-0.0356,-0.034,-0.032,-0.0283,-0.0247,-0.0202,-0.0158,-0.013,-0.0127,-0.0087,-0.0121,-0.013,-0.0077,-0.0074,-0.0071,-0.0034,-0.0028,-0.0115,-0.0115,-0.0115,0,-0.04,-0.0419,-0.0411,-0.0418,-0.0414,-0.0389,-0.0394,-0.0374,-0.0344,-0.0327,-0.032,-0.0242,-0.0203,-0.0149,-0.0147,-0.0131,-0.0104,-0.0124,-0.008,-0.0076,-0.0072,-0.0035,-0.0028,-0.0117,-0.0117,-0.0116,-0.0116,0,-0.0432,-0.0444,-0.0453,-0.0454,-0.0447,-0.0451,-0.0422,-0.041,-0.039,-0.0362,-0.0318,-0.0265,-0.0214,-0.0195,-0.017,-0.0121,-0.0113,-0.0096,-0.0075,-0.0072,-0.0033,-0.0024,-0.012,-0.0119,-0.0118,-0.0118,0,0,-0.0472,-0.0476,-0.0479,-0.0482,-0.0467,-0.0466,-0.0449,-0.0422,-0.0409,-0.0369,-0.034,-0.0275,-0.0247,-0.0214,-0.0171,-0.0123,-0.0075,-0.0103,-0.01,-0.0071,0.0029,0.001,0.0019,-0.0053,-0.0052,-0.005,0.0041,0,-0.0497,-0.0522,-0.0511,-0.0523,-0.053,-0.05,-0.0488,-0.0459,-0.0426,-0.0391,-0.0323,-0.0285,-0.0252,-0.023,-0.0176,-0.0103,-0.0052,-0.0102,0.0025,0.0029,0.001,0.0029,-0.0045,0.0048,0.005,0.0052,0.0053,0,-0.0526,-0.0539,-0.0562,-0.0558,-0.0558,-0.0561,-0.0537,-0.052,-0.046,-0.0434,-0.0376,-0.0325,-0.0246,-0.0224,-0.0088,-0.0125,-0.0054,0.0005,0.001,0.0015,0.0028,0.0049,0.0069,0.0068,0.0067,0.0066,0.0065,0,-0.0557,-0.057,-0.0592,-0.0592,-0.0585,-0.0589,-0.0582,-0.0539,-0.0522,-0.046,-0.0442,-0.0341,-0.0291,-0.0188,-0.0071,-0.0078,0.0074,0.0084,0.0139,0.0138,0.0145,0.0141,0.0185,0.0185,0.0184,0.0184,0.0184,0,-0.0581,-0.0599,-0.0615,-0.0628,-0.0653,-0.0631,-0.0641,-0.0615,-0.0573,-0.0549,-0.0471,-0.0422,-0.028,-0.0177,-0.0074,0.0056,0.0078,0.0142,0.0166,0.0124,0.0116,0.0151,0.0146,0.0188,0.0187,0.0186,0.0186,0,-0.0605,-0.0615,-0.0645,-0.0661,-0.0671,-0.0691,-0.0695,-0.0692,-0.0652,-0.0616,-0.0598,-0.0474,-0.0337,-0.0199,-0.0019,0.0048,0.0176,0.022,0.0156,0.0174,0.0205,0.0197,0.0288,0.0288,0.0288,0.0289,0.0289,0,-0.0614,-0.0636,-0.0683,-0.0712,-0.0726,-0.0753,-0.0769,-0.074,-0.0727,-0.0639,-0.0618,-0.0483,-0.0389,-0.0147,-0.001,0.0181,0.0207,0.0258,0.024,0.0204,0.0219,0.021,0.0202,0.0289,0.0289,0.0289,0.0289,0,-0.0632,-0.0659,-0.0688,-0.0755,-0.0792,-0.082,-0.0835,-0.0827,-0.0772,-0.0743,-0.0608,-0.0472,-0.0317,-0.0134,0.001,0.0147,0.0213,0.0261,0.0261,0.0245,0.0206,0.0219,0.021,0.029,0.029,0.029,0.029,0,-0.0647,-0.0679,-0.073,-0.0781,-0.0837,-0.0862,-0.0866,-0.0826,-0.0797,-0.0689,-0.0639,-0.0462,-0.0348,-0.0149,-0.0013,0.0111,0.0141,0.0168,0.0174,0.0174,0.0107,0.0039,0.0098,0,0,0,0,0,-0.0652,-0.0691,-0.0747,-0.0803,-0.086,-0.0883,-0.0895,-0.0882,-0.0831,-0.0737,-0.068,-0.0524,-0.0294,-0.0188,-0.0063,-0.0035,0.0136,0.0111,0.0163,0.0294,0.0293,0.023,0,0,0,0,0,0,-0.0657,-0.0716,-0.0745,-0.0808,-0.0846,-0.0895,-0.09,-0.0866,-0.0799,-0.0727,-0.0596,-0.0513,-0.0287,-0.0359,-0.0063,-0.0025,0.0018,0.0225,0.0226,0.0294,0.0293,0.0293,0.0228,0,0,0,0,0]}]]